Regional Weather Roundup
Issued by NWS

Home | Current Version | Previous Version | Graphics & Text | Print | Product List | Glossary On
Versions: 1 2 3 4 5 6 7 8 9 10 11 12 13 14 15 16 17 18 19 20 21 22 23 24 25 26 27 28 29 30 31 32 33 34 35 36 37 38 39 40 41 42 43 44 45 46 47 48 49 50
000
ASUS43 KLOT 302121
RWRIL

ILLINOIS REGIONAL WEATHER ROUNDUP
NATIONAL WEATHER SERVICE CHICAGO/ROMEOVILLE IL
400 PM CDT SUN AUG 30 2015

NOTE: "FAIR" INDICATES FEW OR NO CLOUDS BELOW 12,000 FEET WITH NO
SIGNIFICANT WEATHER AND/OR OBSTRUCTIONS TO VISIBILITY.

* THESE STATIONS ARE NOT UNDER NWS QUALITY CONTROL. THEY ALSO MAY NOT
  REPORT WEATHER SUCH AS PRECIPITATION OR FOG.

ILZ001-002-007-009-015-016-024-302200-
NORTHWEST ILLINOIS

CITY           SKY/WX    TMP DP  RH WIND       PRES   REMARKS
MOLINE         MOSUNNY   80  64  58 CALM      30.03F HX  82
STERLING*        N/A    N/A N/A N/A MISG        N/A
SAVANNA*       SUNNY     76  62  60 CALM      30.04F
$$

ILZ003-004-008-010-011-017-018-302200-
NORTH CENTRAL ILLINOIS

CITY           SKY/WX    TMP DP  RH WIND       PRES   REMARKS
ROCKFORD       MOSUNNY   75  62  64 CALM      30.05F
FREEPORT*      MOSUNNY   74  62  67 CALM      30.06F
ROCHELLE*      MOSUNNY   74  64  70 CALM      30.05F
DE KALB*       MOSUNNY   74  64  69 CALM      30.05F
PERU*          MOSUNNY   75  62  64 CALM      30.04F
$$

ILZ005-006-012>014-019>023-302200-
NORTHEAST ILLINOIS

CITY           SKY/WX    TMP DP  RH WIND       PRES   REMARKS
CHICAGO-OHARE  PTSUNNY   77  63  61 W7        30.03F
CHICAGO-MIDWAY PTSUNNY   76  64  66 E8        30.03F
AURORA         PTSUNNY   77  65  66 W5        30.04F
LANSING*       PTSUNNY   78  65  63 CALM      30.03F HX  80
JOLIET*        MOSUNNY   80  65  60 SW3       30.03F HX  81
WAUKEGAN       CLOUDY    69  63  81 E6        30.04F
DUPAGE AIRPORT MOSUNNY   76  62  62 W3        30.03F
KANKAKEE*      MOSUNNY   79  68  69 CALM      30.04F HX  82
WHEELING       MOSUNNY   76  62  62 W3        30.04F
MORRIS*        MOSUNNY   77  65  66 CALM      30.02F
ROMEOVILLE*    MOSUNNY   76  63  62 CALM      30.03F
NORTHERLY ISL    N/A     69  65  86 N7          N/A
$$

LMZ740>746-302200-
SOUTHERN LAKE MICHIGAN

STATION/POSITION SKY/WX   TEMP    WIND        PRES    VSBY  WAVE
                          AIR SEA DIR/SP/G                  HT/PER
                          (F)     (DEG/KT/KT) (MB)    (MI)  (FT/S)
SOUTHERN BUOY              66 69  330/  4/  4 1017.2F         1
WILMETTE HARBOR            64 60  100/  2/  2   N/A           1/ 3
HARRISON CRIB              65      20/  7/  8   N/A
BURNHAM HARBOR             69      20/  5/  7   N/A
MICHIGAN CITY              71     330/  5/  6   N/A
MICHIGAN CITY 6N           69 72   10/  4/  6   N/A           1/ 3
ST. JOSEPH                 69 71   20/  6/  8   N/A           1/ 3
$$

ILZ025>027-034>036-040-047-049-050-058-095>099-302200-
WEST-CENTRAL ILLINOIS

CITY           SKY/WX    TMP DP  RH WIND       PRES   REMARKS
QUINCY         PTSUNNY   85  68  56 NE6       30.01F HX  88
GALESBURG*     MOSUNNY   81  68  63 CALM      30.03F HX  84
MACOMB*        MOSUNNY   81  67  63 CALM      30.04F HX  83
JACKSONVILLE*  MOSUNNY   86  69  57 CALM      30.00F HX  90
PITTSFIELD*    MOSUNNY   85  69  58 CALM      30.02F HX  88
$$

ILZ028>032-037-038-041>044-048-051>054-059>061-302200-
CENTRAL ILLINOIS

CITY           SKY/WX    TMP DP  RH WIND       PRES   REMARKS
PONTIAC        MOSUNNY   80  70  72 NW3       30.03F HX  83
BLOOMINGTON    MOSUNNY   85  70  60 N6        30.04F HX  89
DECATUR        MOSUNNY   86  66  51 S5        30.01F HX  88
PEORIA         MOSUNNY   85  68  56 VRB6      30.02F HX  88
LACON*         MOSUNNY   77  65  66 N5        30.03S
LINCOLN*       CLOUDY    87  70  57 NE6       29.99F HX  91
SPRINGFIELD    MOSUNNY   85  70  60 CALM      30.00F HX  89
TAYLORVILLE    SUNNY     82  70  65 S3        30.01F HX  86
$$

ILZ033-039-045-046-055>057-062-063-302200-
EAST-CENTRAL ILLINOIS

CITY           SKY/WX    TMP DP  RH WIND       PRES   REMARKS
CHAMPAIGN      MOSUNNY   85  65  51 S3        30.02F HX  86
MATTOON        MOSUNNY   85  64  49 SW8       30.01F HX  86
PARIS*         PTSUNNY   85  67  55 S6        30.02F HX  87
$$

ILZ079-100>102-302200-
SOUTHWEST ILLINOIS

CITY           SKY/WX    TMP DP  RH WIND       PRES   REMARKS
BELLEVILLE     PTSUNNY   85  71  61 VRB1      29.99F HX  90
CAHOKIA*       PTSUNNY   88  67  49 CALM      29.99F HX  91
SPARTA*        MOSUNNY   85  70  60 S5        30.01F HX  89
$$

ILZ064>066-069>071-074>076-080>082-084>086-088>090-092>094-302200-
SOUTH-CENTRAL ILLINOIS

CITY           SKY/WX    TMP DP  RH WIND       PRES   REMARKS
CARBONDALE     MOSUNNY   85  72  65 S9        30.01F HX  91
CAIRO*         MOSUNNY   84  76  77 E5        30.01F HX  92
EFFINGHAM*     PTSUNNY   86  63  45 S6        30.03F HX  86
MARION         PTSUNNY   86  70  58 S9        30.02F HX  90
MT. VERNON     MOSUNNY   90  66  45 S9        30.02F HX  92
SALEM*         CLOUDY    86  68  54 CALM      30.01F HX  89
METROPOLIS*    MOSUNNY   85  74  71 CALM      30.03F HX  92
$$

ILZ067-068-072-073-078-083-087-091-302200-
SOUTHEAST ILLINOIS

CITY           SKY/WX    TMP DP  RH WIND       PRES   REMARKS
LAWRENCEVILLE  MOSUNNY   87  66  49 VRB7      30.02F HX  89
FLORA*         MOSUNNY   85  64  50 SW3       30.02F HX  86
FAIRFIELD*     MOSUNNY   86  67  53 SW3       30.01F HX  88
HARRISBURG*    MOSUNNY   86  70  58 SW6       30.02F HX  90
ROBINSON*      MOSUNNY   85  65  49 S6        30.03S HX  87
CARMI*         MOSUNNY   85  71  61 SE5       30.02S HX  90
$$

ABBREVIATIONS USED IN REMARKS
   TC - TEMPERATURE IN CELSIUS
  WCI - WIND CHILL INDEX
   HX - HEAT INDEX
  VSB - VISIBILITY
$$




USA.gov is the U.S. government's official web portal to all federal, state and local government web resources and services.